Year,Month,Day,Hour,Minute,Value (Times are PST for windspeed in km/hr)
2008,02,04,00,00,2.10
2008,02,04,00,01,2.00
2008,02,04,00,02,2.70
2008,02,04,00,03,2.40
2008,02,04,00,04,1.30
2008,02,04,00,05,1.40
2008,02,04,00,06,1.70
2008,02,04,00,07,3.00
2008,02,04,00,08,3.20
2008,02,04,00,09,2.30
2008,02,04,00,10,2.50
2008,02,04,00,11,2.70
2008,02,04,00,12,3.00
2008,02,04,00,13,4.20
2008,02,04,00,14,3.80
2008,02,04,00,15,3.90
2008,02,04,00,16,3.00
2008,02,04,00,17,2.50
2008,02,04,00,18,2.50
2008,02,04,00,19,2.50
2008,02,04,00,20,2.20
2008,02,04,00,21,2.30
2008,02,04,00,22,3.20
2008,02,04,00,23,3.20
2008,02,04,00,24,3.10
2008,02,04,00,25,6.40
2008,02,04,00,26,4.30
2008,02,04,00,27,4.90
2008,02,04,00,28,4.90
2008,02,04,00,29,4.40
2008,02,04,00,30,3.20
2008,02,04,00,31,3.20
2008,02,04,00,32,4.60
2008,02,04,00,33,4.70
2008,02,04,00,34,2.70
2008,02,04,00,35,4.50
2008,02,04,00,36,6.00
2008,02,04,00,37,5.60
2008,02,04,00,38,4.80
2008,02,04,00,39,4.90
2008,02,04,00,40,6.00
2008,02,04,00,41,5.20
2008,02,04,00,42,4.60
2008,02,04,00,43,5.30
2008,02,04,00,44,5.40
2008,02,04,00,45,4.10
2008,02,04,00,46,5.00
2008,02,04,00,47,6.00
2008,02,04,00,48,5.60
2008,02,04,00,49,3.60
2008,02,04,00,50,3.60
2008,02,04,00,51,3.10
2008,02,04,00,52,4.00
2008,02,04,00,53,4.20
2008,02,04,00,54,2.90
2008,02,04,00,55,5.30
2008,02,04,00,56,5.30
2008,02,04,00,57,3.30
2008,02,04,00,58,3.30
2008,02,04,00,59,2.80
2008,02,04,01,00,0.60
2008,02,04,01,01,0.00
2008,02,04,01,02,0.50
2008,02,04,01,03,0.00
2008,02,04,01,04,0.10
2008,02,04,01,05,1.40
2008,02,04,01,06,1.10
2008,02,04,01,07,1.90
2008,02,04,01,08,3.20
2008,02,04,01,09,2.00
2008,02,04,01,10,0.90
2008,02,04,01,11,2.10
2008,02,04,01,12,2.80
2008,02,04,01,13,2.40
2008,02,04,01,14,2.30
2008,02,04,01,15,2.30
2008,02,04,01,16,2.10
2008,02,04,01,17,2.70
2008,02,04,01,18,2.70
2008,02,04,01,19,3.50
2008,02,04,01,20,2.10
2008,02,04,01,21,1.70
2008,02,04,01,22,3.00
2008,02,04,01,23,2.20
2008,02,04,01,24,2.70
2008,02,04,01,25,2.80
2008,02,04,01,26,3.00
2008,02,04,01,27,3.50
2008,02,04,01,28,3.20
2008,02,04,01,29,5.30
2008,02,04,01,30,2.90
2008,02,04,01,31,2.70
2008,02,04,01,32,3.60
2008,02,04,01,33,3.60
2008,02,04,01,34,4.10
2008,02,04,01,35,4.00
2008,02,04,01,36,5.70
2008,02,04,01,37,4.10
2008,02,04,01,38,2.90
2008,02,04,01,39,3.90
2008,02,04,01,40,3.80
2008,02,04,01,41,2.70
2008,02,04,01,42,3.00
2008,02,04,01,43,1.90
2008,02,04,01,44,2.90
2008,02,04,01,45,3.80
2008,02,04,01,46,4.60
2008,02,04,01,47,3.90
2008,02,04,01,48,3.50
2008,02,04,01,49,4.80
2008,02,04,01,50,3.90
2008,02,04,01,51,4.00
2008,02,04,01,52,5.60
2008,02,04,01,53,4.20
2008,02,04,01,54,4.10
2008,02,04,01,55,4.10
2008,02,04,01,56,3.80
2008,02,04,01,57,4.90
2008,02,04,01,58,4.10
2008,02,04,01,59,5.00
2008,02,04,02,00,5.10
2008,02,04,02,01,5.30
2008,02,04,02,02,6.10
2008,02,04,02,03,4.10
2008,02,04,02,04,4.80
2008,02,04,02,05,3.90
2008,02,04,02,06,4.70
2008,02,04,02,07,5.70
2008,02,04,02,08,5.90
2008,02,04,02,09,4.10
2008,02,04,02,10,4.80
2008,02,04,02,11,4.90
2008,02,04,02,12,4.90
2008,02,04,02,13,5.10
2008,02,04,02,14,3.90
2008,02,04,02,15,5.60
2008,02,04,02,16,6.40
2008,02,04,02,17,6.10
2008,02,04,02,18,5.30
2008,02,04,02,19,3.70
2008,02,04,02,20,5.00
2008,02,04,02,21,5.80
2008,02,04,02,22,4.30
2008,02,04,02,23,3.50
2008,02,04,02,24,4.10
2008,02,04,02,25,4.60
2008,02,04,02,26,3.70
2008,02,04,02,27,3.50
2008,02,04,02,28,4.30
2008,02,04,02,29,4.40
2008,02,04,02,30,3.30
2008,02,04,02,31,2.70
2008,02,04,02,32,3.30
2008,02,04,02,33,2.70
2008,02,04,02,34,3.20
2008,02,04,02,35,2.50
2008,02,04,02,36,3.50
2008,02,04,02,37,3.60
2008,02,04,02,38,3.90
2008,02,04,02,39,3.60
2008,02,04,02,40,4.10
2008,02,04,02,41,5.20
2008,02,04,02,42,4.40
2008,02,04,02,43,3.90
2008,02,04,02,44,4.10
2008,02,04,02,45,5.80
2008,02,04,02,46,4.70
2008,02,04,02,47,3.10
2008,02,04,02,48,4.60
2008,02,04,02,49,3.70
2008,02,04,02,50,4.70
2008,02,04,02,51,4.70
2008,02,04,02,52,4.90
2008,02,04,02,53,4.70
2008,02,04,02,54,4.70
2008,02,04,02,55,5.10
2008,02,04,02,56,5.60
2008,02,04,02,57,6.50
2008,02,04,02,58,4.20
2008,02,04,02,59,4.70
2008,02,04,03,00,5.10
2008,02,04,03,01,4.30
2008,02,04,03,02,5.00
2008,02,04,03,03,4.70
2008,02,04,03,04,4.10
2008,02,04,03,05,4.20
2008,02,04,03,06,4.10
2008,02,04,03,07,3.80
2008,02,04,03,08,4.20
2008,02,04,03,09,3.60
2008,02,04,03,10,4.70
2008,02,04,03,11,4.20
2008,02,04,03,12,4.80
2008,02,04,03,13,4.10
2008,02,04,03,14,4.80
2008,02,04,03,15,5.30
2008,02,04,03,16,4.70
2008,02,04,03,17,5.60
2008,02,04,03,18,4.90
2008,02,04,03,19,5.60
2008,02,04,03,20,4.60
2008,02,04,03,21,5.40
2008,02,04,03,22,6.80
2008,02,04,03,23,6.40
2008,02,04,03,24,5.70
2008,02,04,03,25,6.30
2008,02,04,03,26,6.00
2008,02,04,03,27,5.10
2008,02,04,03,28,4.80
2008,02,04,03,29,5.30
2008,02,04,03,30,5.20
2008,02,04,03,31,4.60
2008,02,04,03,32,4.20
2008,02,04,03,33,4.80
2008,02,04,03,34,5.40
2008,02,04,03,35,4.80
2008,02,04,03,36,4.70
2008,02,04,03,37,4.80
2008,02,04,03,38,3.20
2008,02,04,03,39,4.40
2008,02,04,03,40,3.40
2008,02,04,03,41,4.10
2008,02,04,03,42,4.80
2008,02,04,03,43,4.20
2008,02,04,03,44,4.10
2008,02,04,03,45,3.00
2008,02,04,03,46,3.00
2008,02,04,03,47,2.50
2008,02,04,03,48,2.90
2008,02,04,03,49,2.40
2008,02,04,03,50,2.50
2008,02,04,03,51,1.70
2008,02,04,03,52,0.90
2008,02,04,03,53,0.00
2008,02,04,03,54,0.90
2008,02,04,03,55,0.30
2008,02,04,03,56,1.90
2008,02,04,03,57,2.50
2008,02,04,03,58,3.10
2008,02,04,03,59,3.20
2008,02,04,04,00,3.20
2008,02,04,04,01,3.40
2008,02,04,04,02,3.10
2008,02,04,04,03,3.20
2008,02,04,04,04,3.00
2008,02,04,04,05,2.40
2008,02,04,04,06,3.30
2008,02,04,04,07,2.80
2008,02,04,04,08,2.70
2008,02,04,04,09,3.20
2008,02,04,04,10,3.10
2008,02,04,04,11,3.00
2008,02,04,04,12,2.50
2008,02,04,04,13,2.30
2008,02,04,04,14,2.10
2008,02,04,04,15,2.30
2008,02,04,04,16,2.40
2008,02,04,04,17,2.30
2008,02,04,04,18,2.10
2008,02,04,04,19,2.10
2008,02,04,04,20,1.80
2008,02,04,04,21,1.70
2008,02,04,04,22,1.40
2008,02,04,04,23,1.60
2008,02,04,04,24,1.30
2008,02,04,04,25,0.50
2008,02,04,04,26,0.00
2008,02,04,04,27,0.00
2008,02,04,04,28,0.00
2008,02,04,04,29,0.00
2008,02,04,04,30,0.00
2008,02,04,04,31,0.90
2008,02,04,04,32,1.30
2008,02,04,04,33,1.40
2008,02,04,04,34,0.10
2008,02,04,04,35,0.00
2008,02,04,04,36,0.00
2008,02,04,04,37,0.00
2008,02,04,04,38,0.00
2008,02,04,04,39,0.00
2008,02,04,04,40,0.00
2008,02,04,04,41,0.00
2008,02,04,04,42,0.00
2008,02,04,04,43,0.00
2008,02,04,04,44,0.00
2008,02,04,04,45,0.00
2008,02,04,04,46,0.00
2008,02,04,04,47,0.00
2008,02,04,04,48,0.30
2008,02,04,04,49,0.00
2008,02,04,04,50,0.00
2008,02,04,04,51,0.00
2008,02,04,04,52,0.00
2008,02,04,04,53,0.00
2008,02,04,04,54,0.00
2008,02,04,04,55,0.00
2008,02,04,04,56,0.00
2008,02,04,04,57,0.00
2008,02,04,04,58,0.00
2008,02,04,04,59,0.00
2008,02,04,05,00,0.00
2008,02,04,05,01,0.00
2008,02,04,05,02,0.00
2008,02,04,05,03,0.00
2008,02,04,05,04,0.00
2008,02,04,05,05,0.00
2008,02,04,05,06,0.00
2008,02,04,05,07,0.00
2008,02,04,05,08,0.00
2008,02,04,05,09,0.00
2008,02,04,05,10,0.00
2008,02,04,05,11,0.90
2008,02,04,05,12,2.10
2008,02,04,05,13,1.80
2008,02,04,05,14,1.90
2008,02,04,05,15,0.90
2008,02,04,05,16,0.10
2008,02,04,05,17,0.30
2008,02,04,05,18,1.10
2008,02,04,05,19,0.70
2008,02,04,05,20,0.00
2008,02,04,05,21,0.00
2008,02,04,05,22,0.00
2008,02,04,05,23,0.00
2008,02,04,05,24,0.00
2008,02,04,05,25,0.30
2008,02,04,05,26,0.40
2008,02,04,05,27,0.70
2008,02,04,05,28,0.20
2008,02,04,05,29,2.20
2008,02,04,05,30,1.40
2008,02,04,05,31,1.50
2008,02,04,05,32,0.40
2008,02,04,05,33,0.40
2008,02,04,05,34,0.00
2008,02,04,05,35,0.00
2008,02,04,05,36,0.00
2008,02,04,05,37,0.00
2008,02,04,05,38,0.00
2008,02,04,05,39,0.00
2008,02,04,05,40,0.00
2008,02,04,05,41,0.00
2008,02,04,05,42,0.00
2008,02,04,05,43,0.00
2008,02,04,05,44,0.30
2008,02,04,05,45,2.00
2008,02,04,05,46,1.20
2008,02,04,05,47,0.90
2008,02,04,05,48,1.10
2008,02,04,05,49,0.00
2008,02,04,05,50,0.00
2008,02,04,05,51,0.00
2008,02,04,05,52,0.00
2008,02,04,05,53,0.00
2008,02,04,05,54,0.00
2008,02,04,05,55,0.00
2008,02,04,05,56,0.00
2008,02,04,05,57,0.70
2008,02,04,05,58,1.00
2008,02,04,05,59,1.20
2008,02,04,06,00,0.30
2008,02,04,06,01,0.00
2008,02,04,06,02,0.00
2008,02,04,06,03,0.00
2008,02,04,06,04,0.00
2008,02,04,06,05,1.40
2008,02,04,06,06,1.80
2008,02,04,06,07,2.70
2008,02,04,06,08,2.10
2008,02,04,06,09,1.10
2008,02,04,06,10,2.80
2008,02,04,06,11,2.10
2008,02,04,06,12,2.40
2008,02,04,06,13,0.40
2008,02,04,06,14,2.60
2008,02,04,06,15,2.80
2008,02,04,06,16,2.30
2008,02,04,06,17,1.50
2008,02,04,06,18,1.50
2008,02,04,06,19,1.60
2008,02,04,06,20,1.90
2008,02,04,06,21,1.20
2008,02,04,06,22,0.60
2008,02,04,06,23,0.00
2008,02,04,06,24,0.00
2008,02,04,06,25,0.30
2008,02,04,06,26,0.00
2008,02,04,06,27,1.40
2008,02,04,06,28,0.50
2008,02,04,06,29,0.00
2008,02,04,06,30,0.00
2008,02,04,06,31,0.00
2008,02,04,06,32,0.20
2008,02,04,06,33,2.40
2008,02,04,06,34,2.10
2008,02,04,06,35,2.00
2008,02,04,06,36,2.20
2008,02,04,06,37,1.30
2008,02,04,06,38,0.00
2008,02,04,06,39,0.10
2008,02,04,06,40,1.90
2008,02,04,06,41,2.20
2008,02,04,06,42,1.60
2008,02,04,06,43,2.10
2008,02,04,06,44,1.50
2008,02,04,06,45,0.60
2008,02,04,06,46,0.00
2008,02,04,06,47,0.00
2008,02,04,06,48,0.00
2008,02,04,06,49,0.00
2008,02,04,06,50,0.00
2008,02,04,06,51,0.10
2008,02,04,06,52,0.00
2008,02,04,06,53,0.50
2008,02,04,06,54,0.90
2008,02,04,06,55,1.40
2008,02,04,06,56,1.50
2008,02,04,06,57,2.80
2008,02,04,06,58,3.10
2008,02,04,06,59,3.00
2008,02,04,07,00,3.00
2008,02,04,07,01,3.00
2008,02,04,07,02,2.20
2008,02,04,07,03,2.50
2008,02,04,07,04,3.20
2008,02,04,07,05,2.80
2008,02,04,07,06,3.10
2008,02,04,07,07,3.70
2008,02,04,07,08,3.30
2008,02,04,07,09,2.70
2008,02,04,07,10,2.50
2008,02,04,07,11,2.20
2008,02,04,07,12,3.00
2008,02,04,07,13,3.30
2008,02,04,07,14,3.30
2008,02,04,07,15,2.90
2008,02,04,07,16,3.00
2008,02,04,07,17,2.50
2008,02,04,07,18,2.40
2008,02,04,07,19,2.00
2008,02,04,07,20,2.50
2008,02,04,07,21,2.10
2008,02,04,07,22,2.30
2008,02,04,07,23,2.50
2008,02,04,07,24,2.20
2008,02,04,07,25,1.80
2008,02,04,07,26,1.70
2008,02,04,07,27,1.40
2008,02,04,07,28,0.20
2008,02,04,07,29,0.10
2008,02,04,07,30,0.90
2008,02,04,07,31,1.10
2008,02,04,07,32,0.30
2008,02,04,07,33,1.60
2008,02,04,07,34,1.40
2008,02,04,07,35,2.30
2008,02,04,07,36,1.50
2008,02,04,07,37,1.10
2008,02,04,07,38,0.40
2008,02,04,07,39,0.00
2008,02,04,07,40,0.30
2008,02,04,07,41,0.70
2008,02,04,07,42,0.00
2008,02,04,07,43,0.00
2008,02,04,07,44,0.00
2008,02,04,07,45,0.40
2008,02,04,07,46,1.30
2008,02,04,07,47,0.20
2008,02,04,07,48,0.00
2008,02,04,07,49,0.00
2008,02,04,07,50,0.70
2008,02,04,07,51,2.00
2008,02,04,07,52,2.40
2008,02,04,07,53,1.90
2008,02,04,07,54,0.80
2008,02,04,07,55,0.10
2008,02,04,07,56,0.00
2008,02,04,07,57,0.00
2008,02,04,07,58,0.00
2008,02,04,07,59,0.00
2008,02,04,08,00,0.00
2008,02,04,08,01,0.00
2008,02,04,08,02,0.00
2008,02,04,08,03,0.00
2008,02,04,08,04,0.00
2008,02,04,08,05,0.00
2008,02,04,08,06,0.30
2008,02,04,08,07,1.80
2008,02,04,08,08,2.00
2008,02,04,08,09,1.60
2008,02,04,08,10,2.00
2008,02,04,08,11,1.60
2008,02,04,08,12,1.80
2008,02,04,08,13,1.60
2008,02,04,08,14,1.20
2008,02,04,08,15,2.00
2008,02,04,08,16,2.30
2008,02,04,08,17,2.40
2008,02,04,08,18,2.30
2008,02,04,08,19,2.00
2008,02,04,08,20,1.90
2008,02,04,08,21,2.00
2008,02,04,08,22,1.30
2008,02,04,08,23,0.00
2008,02,04,08,24,0.60
2008,02,04,08,25,0.30
2008,02,04,08,26,0.00
2008,02,04,08,27,0.10
2008,02,04,08,28,1.30
2008,02,04,08,29,1.10
2008,02,04,08,30,1.40
2008,02,04,08,31,2.10
2008,02,04,08,32,1.90
2008,02,04,08,33,1.50
2008,02,04,08,34,1.30
2008,02,04,08,35,1.00
2008,02,04,08,36,0.30
2008,02,04,08,37,0.40
2008,02,04,08,38,0.90
2008,02,04,08,39,1.40
2008,02,04,08,40,2.20
2008,02,04,08,41,2.50
2008,02,04,08,42,2.40
2008,02,04,08,43,2.10
2008,02,04,08,44,2.20
2008,02,04,08,45,1.70
2008,02,04,08,46,2.10
2008,02,04,08,47,2.20
2008,02,04,08,48,2.90
2008,02,04,08,49,2.40
2008,02,04,08,50,1.40
2008,02,04,08,51,1.40
2008,02,04,08,52,1.30
2008,02,04,08,53,0.80
2008,02,04,08,54,1.10
2008,02,04,08,55,0.60
2008,02,04,08,56,0.80
2008,02,04,08,57,0.00
2008,02,04,08,58,0.00
2008,02,04,08,59,0.00
2008,02,04,09,00,1.00
2008,02,04,09,01,0.80
2008,02,04,09,02,0.00
2008,02,04,09,03,0.00
2008,02,04,09,04,0.00
2008,02,04,09,05,0.00
2008,02,04,09,06,0.00
2008,02,04,09,07,0.00
2008,02,04,09,08,0.00
2008,02,04,09,09,0.00
2008,02,04,09,10,0.00
2008,02,04,09,11,0.00
2008,02,04,09,12,0.00
2008,02,04,09,13,0.30
2008,02,04,09,14,0.60
2008,02,04,09,15,0.20
2008,02,04,09,16,0.00
2008,02,04,09,17,0.00
2008,02,04,09,18,0.00
2008,02,04,09,19,0.00
2008,02,04,09,20,0.00
2008,02,04,09,21,0.00
2008,02,04,09,22,0.00
2008,02,04,09,23,0.00
2008,02,04,09,24,0.00
2008,02,04,09,25,0.10
2008,02,04,09,26,0.30
2008,02,04,09,27,0.00
2008,02,04,09,28,0.00
2008,02,04,09,29,0.00
2008,02,04,09,30,0.00
2008,02,04,09,31,0.00
2008,02,04,09,32,0.00
2008,02,04,09,33,0.00
2008,02,04,09,34,0.00
2008,02,04,09,35,0.00
2008,02,04,09,36,0.00
2008,02,04,09,37,0.00
2008,02,04,09,38,0.10
2008,02,04,09,39,0.00
2008,02,04,09,40,0.00
2008,02,04,09,41,0.00
2008,02,04,09,42,0.00
2008,02,04,09,43,0.00
2008,02,04,09,44,0.00
2008,02,04,09,45,0.00
2008,02,04,09,46,0.00
2008,02,04,09,47,0.00
2008,02,04,09,48,0.00
2008,02,04,09,49,0.00
2008,02,04,09,50,0.00
2008,02,04,09,51,0.00
2008,02,04,09,52,0.00
2008,02,04,09,53,0.00
2008,02,04,09,54,0.00
2008,02,04,09,55,0.00
2008,02,04,09,56,0.00
2008,02,04,09,57,0.00
2008,02,04,09,58,0.00
2008,02,04,09,59,0.00
2008,02,04,10,00,0.00
2008,02,04,10,01,0.00
2008,02,04,10,02,0.00
2008,02,04,10,03,0.00
2008,02,04,10,04,0.00
2008,02,04,10,05,0.00
2008,02,04,10,06,0.00
2008,02,04,10,07,0.00
2008,02,04,10,08,0.00
2008,02,04,10,09,0.00
2008,02,04,10,10,0.00
2008,02,04,10,11,0.00
2008,02,04,10,12,0.00
2008,02,04,10,13,0.00
2008,02,04,10,14,0.00
2008,02,04,10,15,0.00
2008,02,04,10,16,0.00
2008,02,04,10,17,0.00
2008,02,04,10,18,0.00
2008,02,04,10,19,0.00
2008,02,04,10,20,0.00
2008,02,04,10,21,0.00
2008,02,04,10,22,0.00
2008,02,04,10,23,0.00
2008,02,04,10,24,0.00
2008,02,04,10,25,0.00
2008,02,04,10,26,0.00
2008,02,04,10,27,0.00
2008,02,04,10,28,0.00
2008,02,04,10,29,0.00
2008,02,04,10,30,0.10
2008,02,04,10,31,0.20
2008,02,04,10,32,2.00
2008,02,04,10,33,1.80
2008,02,04,10,34,1.10
2008,02,04,10,35,0.30
2008,02,04,10,36,0.00
2008,02,04,10,37,0.00
2008,02,04,10,38,0.00
2008,02,04,10,39,0.40
2008,02,04,10,40,0.30
2008,02,04,10,41,0.50
2008,02,04,10,42,0.10
2008,02,04,10,43,1.60
2008,02,04,10,44,1.10
2008,02,04,10,45,0.90
2008,02,04,10,46,2.30
2008,02,04,10,47,0.00
2008,02,04,10,48,0.00
2008,02,04,10,49,0.60
2008,02,04,10,50,0.80
2008,02,04,10,51,1.00
2008,02,04,10,52,1.40
2008,02,04,10,53,1.50
2008,02,04,10,54,0.30
2008,02,04,10,55,0.20
2008,02,04,10,56,0.10
2008,02,04,10,57,0.30
2008,02,04,10,58,1.80
2008,02,04,10,59,0.30
2008,02,04,11,00,1.20
2008,02,04,11,01,0.30
2008,02,04,11,02,2.00
2008,02,04,11,03,3.40
2008,02,04,11,04,2.90
2008,02,04,11,05,2.80
2008,02,04,11,06,2.20
2008,02,04,11,07,1.40
2008,02,04,11,08,4.60
2008,02,04,11,09,2.40
2008,02,04,11,10,3.70
2008,02,04,11,11,1.60
2008,02,04,11,12,1.50
2008,02,04,11,13,5.70
2008,02,04,11,14,6.40
2008,02,04,11,15,4.80
2008,02,04,11,16,4.30
2008,02,04,11,17,3.70
2008,02,04,11,18,8.30
2008,02,04,11,19,11.30
2008,02,04,11,20,9.10
2008,02,04,11,21,11.10
2008,02,04,11,22,4.40
2008,02,04,11,23,8.30
2008,02,04,11,24,7.70
2008,02,04,11,25,8.30
2008,02,04,11,26,6.30
2008,02,04,11,27,10.10
2008,02,04,11,28,8.60
2008,02,04,11,29,9.10
2008,02,04,11,30,6.60
2008,02,04,11,31,4.60
2008,02,04,11,32,6.80
2008,02,04,11,33,9.10
2008,02,04,11,34,9.70
2008,02,04,11,35,6.10
2008,02,04,11,36,8.40
2008,02,04,11,37,10.80
2008,02,04,11,38,6.40
2008,02,04,11,39,13.00
2008,02,04,11,40,10.80
2008,02,04,11,41,9.70
2008,02,04,11,42,9.90
2008,02,04,11,43,7.30
2008,02,04,11,44,6.70
2008,02,04,11,45,12.00
2008,02,04,11,46,13.10
2008,02,04,11,47,14.10
2008,02,04,11,48,8.50
2008,02,04,11,49,11.40
2008,02,04,11,50,12.80
2008,02,04,11,51,11.60
2008,02,04,11,52,11.30
2008,02,04,11,53,8.80
2008,02,04,11,54,11.40
2008,02,04,11,55,7.00
2008,02,04,11,56,10.00
2008,02,04,11,57,9.70
2008,02,04,11,58,8.10
2008,02,04,11,59,5.40
2008,02,04,12,00,8.90
2008,02,04,12,01,10.60
2008,02,04,12,02,12.30
2008,02,04,12,03,9.40
2008,02,04,12,04,8.90
2008,02,04,12,05,7.80
2008,02,04,12,06,8.80
2008,02,04,12,07,10.30
2008,02,04,12,08,9.80
2008,02,04,12,09,7.20
2008,02,04,12,10,6.70
2008,02,04,12,11,8.90
2008,02,04,12,12,9.70
2008,02,04,12,13,8.30
2008,02,04,12,14,8.90
2008,02,04,12,15,10.60
2008,02,04,12,16,8.60
2008,02,04,12,17,11.80
2008,02,04,12,18,9.10
2008,02,04,12,19,9.80
2008,02,04,12,20,6.30
2008,02,04,12,21,7.30
2008,02,04,12,22,12.20
2008,02,04,12,23,9.50
2008,02,04,12,24,7.50
2008,02,04,12,25,9.30
2008,02,04,12,26,10.40
2008,02,04,12,27,6.90
2008,02,04,12,28,9.10
2008,02,04,12,29,8.20
2008,02,04,12,30,8.50
2008,02,04,12,31,7.70
2008,02,04,12,32,3.90
2008,02,04,12,33,12.40
2008,02,04,12,34,6.10
2008,02,04,12,35,10.00
2008,02,04,12,36,10.10
2008,02,04,12,37,8.70
2008,02,04,12,38,8.30
2008,02,04,12,39,6.60
2008,02,04,12,40,9.60
2008,02,04,12,41,8.80
2008,02,04,12,42,11.70
2008,02,04,12,43,9.00
2008,02,04,12,44,8.20
2008,02,04,12,45,9.40
2008,02,04,12,46,10.40
2008,02,04,12,47,10.90
2008,02,04,12,48,11.10
2008,02,04,12,49,10.40
2008,02,04,12,50,9.70
2008,02,04,12,51,11.60
2008,02,04,12,52,11.50
2008,02,04,12,53,8.90
2008,02,04,12,54,10.20
2008,02,04,12,55,8.40
2008,02,04,12,56,6.80
2008,02,04,12,57,11.90
2008,02,04,12,58,6.30
2008,02,04,12,59,9.70
2008,02,04,13,00,10.30
2008,02,04,13,01,10.80
2008,02,04,13,02,8.80
2008,02,04,13,03,10.00
2008,02,04,13,04,10.10
2008,02,04,13,05,9.80
2008,02,04,13,06,9.70
2008,02,04,13,07,7.60
2008,02,04,13,08,10.50
2008,02,04,13,09,10.80
2008,02,04,13,10,9.80
2008,02,04,13,11,7.70
2008,02,04,13,12,10.00
2008,02,04,13,13,7.30
2008,02,04,13,14,8.50
2008,02,04,13,15,7.40
2008,02,04,13,16,10.30
2008,02,04,13,17,10.70
2008,02,04,13,18,9.20
2008,02,04,13,19,6.40
2008,02,04,13,20,8.90
2008,02,04,13,21,8.00
2008,02,04,13,22,7.70
2008,02,04,13,23,10.30
2008,02,04,13,24,10.30
2008,02,04,13,25,10.70
2008,02,04,13,26,7.70
2008,02,04,13,27,6.50
2008,02,04,13,28,11.30
2008,02,04,13,29,5.80
2008,02,04,13,30,7.70
2008,02,04,13,31,9.10
2008,02,04,13,32,7.80
2008,02,04,13,33,10.10
2008,02,04,13,34,11.30
2008,02,04,13,35,10.70
2008,02,04,13,36,11.50
2008,02,04,13,37,12.20
2008,02,04,13,38,13.60
2008,02,04,13,39,8.20
2008,02,04,13,40,11.40
2008,02,04,13,41,9.90
2008,02,04,13,42,6.30
2008,02,04,13,43,8.80
2008,02,04,13,44,7.50
2008,02,04,13,45,9.40
2008,02,04,13,46,6.70
2008,02,04,13,47,9.10
2008,02,04,13,48,8.20
2008,02,04,13,49,7.30
2008,02,04,13,50,10.30
2008,02,04,13,51,15.20
2008,02,04,13,52,10.30
2008,02,04,13,53,12.00
2008,02,04,13,54,6.10
2008,02,04,13,55,11.70
2008,02,04,13,56,11.90
2008,02,04,13,57,11.40
2008,02,04,13,58,11.30
2008,02,04,13,59,10.70
2008,02,04,14,00,9.70
2008,02,04,14,01,8.50
2008,02,04,14,02,6.90
2008,02,04,14,03,7.40
2008,02,04,14,04,6.70
2008,02,04,14,05,9.90
2008,02,04,14,06,9.70
2008,02,04,14,07,11.90
2008,02,04,14,08,12.40
2008,02,04,14,09,11.30
2008,02,04,14,10,13.80
2008,02,04,14,11,13.50
2008,02,04,14,12,9.40
2008,02,04,14,13,7.20
2008,02,04,14,14,6.70
2008,02,04,14,15,7.00
2008,02,04,14,16,9.20
2008,02,04,14,17,9.10
2008,02,04,14,18,9.00
2008,02,04,14,19,8.00
2008,02,04,14,20,6.50
2008,02,04,14,21,5.20
2008,02,04,14,22,3.90
2008,02,04,14,23,3.80
2008,02,04,14,24,4.90
2008,02,04,14,25,9.70
2008,02,04,14,26,13.80
2008,02,04,14,27,10.30
2008,02,04,14,28,10.50
2008,02,04,14,29,8.90
2008,02,04,14,30,4.50
2008,02,04,14,31,2.90
2008,02,04,14,32,8.40
2008,02,04,14,33,3.80
2008,02,04,14,34,5.60
2008,02,04,14,35,5.30
2008,02,04,14,36,9.60
2008,02,04,14,37,8.60
2008,02,04,14,38,5.80
2008,02,04,14,39,8.00
2008,02,04,14,40,11.20
2008,02,04,14,41,7.50
2008,02,04,14,42,6.10
2008,02,04,14,43,11.00
2008,02,04,14,44,9.20
2008,02,04,14,45,8.40
2008,02,04,14,46,11.70
2008,02,04,14,47,11.40
2008,02,04,14,48,9.70
2008,02,04,14,49,6.60
2008,02,04,14,50,9.30
2008,02,04,14,51,9.20
2008,02,04,14,52,11.10
2008,02,04,14,53,11.30
2008,02,04,14,54,16.30
2008,02,04,14,55,13.10
2008,02,04,14,56,13.00
2008,02,04,14,57,10.20
2008,02,04,14,58,11.50
2008,02,04,14,59,14.20
2008,02,04,15,00,12.30
2008,02,04,15,01,5.10
2008,02,04,15,02,8.20
2008,02,04,15,03,10.00
2008,02,04,15,04,10.20
2008,02,04,15,05,13.70
2008,02,04,15,06,10.90
2008,02,04,15,07,12.40
2008,02,04,15,08,10.20
2008,02,04,15,09,11.30
2008,02,04,15,10,8.70
2008,02,04,15,11,6.00
2008,02,04,15,12,10.20
2008,02,04,15,13,6.60
2008,02,04,15,14,13.20
2008,02,04,15,15,9.60
2008,02,04,15,16,11.40
2008,02,04,15,17,13.20
2008,02,04,15,18,8.90
2008,02,04,15,19,6.40
2008,02,04,15,20,7.30
2008,02,04,15,21,11.00
2008,02,04,15,22,11.60
2008,02,04,15,23,8.70
2008,02,04,15,24,8.10
2008,02,04,15,25,6.80
2008,02,04,15,26,12.50
2008,02,04,15,27,12.20
2008,02,04,15,28,12.20
2008,02,04,15,29,13.50
2008,02,04,15,30,8.20
2008,02,04,15,31,8.60
2008,02,04,15,32,7.40
2008,02,04,15,33,9.40
2008,02,04,15,34,9.70
2008,02,04,15,35,10.50
2008,02,04,15,36,7.40
2008,02,04,15,37,7.30
2008,02,04,15,38,10.40
2008,02,04,15,39,9.40
2008,02,04,15,40,9.20
2008,02,04,15,41,6.40
2008,02,04,15,42,3.80
2008,02,04,15,43,7.50
2008,02,04,15,44,11.00
2008,02,04,15,45,8.00
2008,02,04,15,46,6.50
2008,02,04,15,47,9.30
2008,02,04,15,48,8.30
2008,02,04,15,49,5.20
2008,02,04,15,50,2.30
2008,02,04,15,51,4.90
2008,02,04,15,52,4.10
2008,02,04,15,53,7.80
2008,02,04,15,54,9.70
2008,02,04,15,55,6.00
2008,02,04,15,56,7.50
2008,02,04,15,57,7.40
2008,02,04,15,58,9.50
2008,02,04,15,59,9.10
2008,02,04,16,00,7.30
2008,02,04,16,01,11.10
2008,02,04,16,02,7.50
2008,02,04,16,03,9.20
2008,02,04,16,04,4.90
2008,02,04,16,05,7.50
2008,02,04,16,06,7.80
2008,02,04,16,07,9.40
2008,02,04,16,08,9.30
2008,02,04,16,09,6.10
2008,02,04,16,10,6.20
2008,02,04,16,11,6.40
2008,02,04,16,12,10.20
2008,02,04,16,13,8.80
2008,02,04,16,14,8.30
2008,02,04,16,15,10.80
2008,02,04,16,16,9.10
2008,02,04,16,17,8.20
2008,02,04,16,18,9.00
2008,02,04,16,19,7.00
2008,02,04,16,20,7.40
2008,02,04,16,21,6.30
2008,02,04,16,22,10.80
2008,02,04,16,23,7.90
2008,02,04,16,24,7.00
2008,02,04,16,25,8.30
2008,02,04,16,26,9.90
2008,02,04,16,27,8.50
2008,02,04,16,28,7.20
2008,02,04,16,29,9.90
2008,02,04,16,30,5.10
2008,02,04,16,31,11.40
2008,02,04,16,32,10.20
2008,02,04,16,33,8.80
2008,02,04,16,34,7.00
2008,02,04,16,35,8.90
2008,02,04,16,36,9.30
2008,02,04,16,37,11.30
2008,02,04,16,38,10.80
2008,02,04,16,39,11.20
2008,02,04,16,40,8.90
2008,02,04,16,41,9.10
2008,02,04,16,42,8.80
2008,02,04,16,43,12.40
2008,02,04,16,44,9.10
2008,02,04,16,45,8.80
2008,02,04,16,46,9.30
2008,02,04,16,47,4.90
2008,02,04,16,48,5.20
2008,02,04,16,49,6.40
2008,02,04,16,50,7.50
2008,02,04,16,51,7.80
2008,02,04,16,52,7.50
2008,02,04,16,53,5.70
2008,02,04,16,54,7.50
2008,02,04,16,55,8.60
2008,02,04,16,56,7.10
2008,02,04,16,57,9.10
2008,02,04,16,58,8.10
2008,02,04,16,59,8.60
2008,02,04,17,00,4.40
2008,02,04,17,01,6.30
2008,02,04,17,02,5.80
2008,02,04,17,03,8.00
2008,02,04,17,04,5.60
2008,02,04,17,05,7.50
2008,02,04,17,06,8.10
2008,02,04,17,07,7.70
2008,02,04,17,08,6.60
2008,02,04,17,09,6.30
2008,02,04,17,10,4.40
2008,02,04,17,11,3.00
2008,02,04,17,12,4.60
2008,02,04,17,13,2.80
2008,02,04,17,14,6.00
2008,02,04,17,15,4.60
2008,02,04,17,16,6.90
2008,02,04,17,17,3.40
2008,02,04,17,18,7.80
2008,02,04,17,19,2.40
2008,02,04,17,20,3.00
2008,02,04,17,21,3.10
2008,02,04,17,22,5.70
2008,02,04,17,23,6.70
2008,02,04,17,24,8.10
2008,02,04,17,25,10.80
2008,02,04,17,26,9.70
2008,02,04,17,27,11.30
2008,02,04,17,28,6.80
2008,02,04,17,29,10.20
2008,02,04,17,30,6.90
2008,02,04,17,31,5.30
2008,02,04,17,32,6.00
2008,02,04,17,33,8.90
2008,02,04,17,34,6.20
2008,02,04,17,35,9.00
2008,02,04,17,36,9.70
2008,02,04,17,37,10.10
2008,02,04,17,38,13.60
2008,02,04,17,39,8.90
2008,02,04,17,40,7.80
2008,02,04,17,41,7.80
2008,02,04,17,42,9.70
2008,02,04,17,43,12.40
2008,02,04,17,44,9.30
2008,02,04,17,45,7.50
2008,02,04,17,46,6.90
2008,02,04,17,47,9.40
2008,02,04,17,48,10.10
2008,02,04,17,49,13.00
2008,02,04,17,50,8.80
2008,02,04,17,51,5.20
2008,02,04,17,52,7.10
2008,02,04,17,53,8.20
2008,02,04,17,54,12.80
2008,02,04,17,55,11.90
2008,02,04,17,56,8.50
2008,02,04,17,57,11.30
2008,02,04,17,58,9.80
2008,02,04,17,59,7.90
2008,02,04,18,00,5.40